Port Angeles, WA

12:56 PM PST on January 20, 2017 (GMT -0800)
Fairchild International

Weather History for KCLM - January, 2013

Change the Weather History Date:

Friday, January 4, 2013

  Actual Average Record
Temperature  
Mean Temperature 40 °F -  
Max Temperature 45 °F 44 °F 56 °F (1984)
Min Temperature 36 °F 33 °F 14 °F (1959)
Degree Days  
Heating Degree Days 24    
Moisture  
Dew Point 38 °F    
Average Humidity 88    
Maximum Humidity 96    
Minimum Humidity 76    
Precipitation  
Precipitation 0.00 in - - ()
Sea Level Pressure  
Sea Level Pressure 30.21 in    
Wind  
Wind Speed 4 mph (SSE)    
Max Wind Speed 8 mph    
Max Gust Speed -    
Visibility 10 miles    
Events Rain    
Averages and records for this station are not official NWS values.
T = Trace of Precipitation, MM = Missing Value Source: NWS Daily Summary

Daily Weather History Graph

Daily Weather History Graph

Search for Another Location

Airport or City:

Trip Planner

Search our weather history database for the weather conditions in past years. The results will help you decide how hot, cold, wet, or windy it might be!

Date:

Astronomy

Jan. 04, 2013 Rise Set
Actual Time 8:03 AM PST 4:34 PM PST
Civil Twilight 7:27 AM PST 5:10 PM PST
Nautical Twilight 6:48 AM PST 5:50 PM PST
Astronomical Twilight 6:10 AM PST 6:27 PM PST
Moon No Moon Rise 11:13 AM PST (1/4)
Length of Visible Light 9h 42m
Length of Day
8h 30m
Waning Gibbous, 54% of the Moon is Illuminated
Jan 4
Waning Gibbous
Jan 4
Last Quarter
Jan 11
New
Jan 18
First Quarter
Jan 26
Full

Hourly Weather History & Observations

Time (PST) Temp. Windchill Dew Point Humidity Pressure Visibility Wind Dir Wind Speed Gust Speed Precip Events Conditions
12:21 AM 37.9 °F 32.7 °F 35.1 °F 89% 30.09 in 10.0 mi WSW 6.9 mph - N/A   Overcast
12:53 AM 36.0 °F 32.1 °F 34.0 °F 93% 30.11 in 10.0 mi SW 4.6 mph - N/A   Overcast
1:43 AM 37.0 °F 32.4 °F 34.0 °F 89% 30.13 in 10.0 mi WSW 5.8 mph - N/A   Overcast
1:53 AM 37.0 °F 31.0 °F 35.1 °F 93% 30.15 in 10.0 mi WSW 8.1 mph - N/A   Overcast
2:07 AM 37.9 °F 33.5 °F 35.1 °F 89% 30.15 in 10.0 mi WSW 5.8 mph - N/A   Overcast
2:53 AM 41.0 °F 39.0 °F 37.9 °F 89% 30.18 in 10.0 mi West 3.5 mph - N/A   Overcast
3:53 AM 37.9 °F 35.5 °F 35.1 °F 89% 30.19 in 10.0 mi SW 3.5 mph - N/A   Overcast
4:53 AM 37.4 °F 34.9 °F 35.6 °F 93% 30.19 in 10.0 mi SW 3.5 mph - N/A   Overcast
5:53 AM 37.9 °F 35.5 °F 36.0 °F 93% 30.22 in 10.0 mi SSW 3.5 mph - N/A   Overcast
6:53 AM 39.0 °F - 37.0 °F 93% 30.23 in 10.0 mi Calm Calm - 0.00 in Rain Light Rain
7:53 AM 39.0 °F - 37.9 °F 96% 30.24 in 10.0 mi Calm Calm - 0.00 in   Overcast
8:53 AM 39.9 °F 37.8 °F 37.9 °F 93% 30.26 in 10.0 mi South 3.5 mph - 0.00 in   Overcast
9:09 AM 39.9 °F - 37.9 °F 93% 30.26 in 10.0 mi Calm Calm - N/A   Mostly Cloudy
9:53 AM 45.0 °F - 39.9 °F 82% 30.28 in 10.0 mi Calm Calm - N/A   Overcast
10:27 AM 45.0 °F 42.6 °F 39.9 °F 82% 30.28 in 10.0 mi Variable 4.6 mph - N/A   Mostly Cloudy
10:53 AM 45.0 °F 43.5 °F 37.9 °F 76% 30.29 in 10.0 mi SE 3.5 mph - N/A   Partly Cloudy
11:53 AM 44.1 °F 41.5 °F 37.9 °F 79% 30.29 in 10.0 mi NE 4.6 mph - N/A   Partly Cloudy
12:15 PM 45.0 °F 43.5 °F 39.0 °F 80% 30.28 in 10.0 mi Variable 3.5 mph - N/A   Mostly Cloudy
12:53 PM 44.1 °F 40.8 °F 39.0 °F 82% 30.28 in 10.0 mi East 5.8 mph - N/A   Overcast
1:53 PM 45.0 °F 41.2 °F 39.9 °F 82% 30.27 in 10.0 mi ESE 6.9 mph - N/A   Overcast
2:21 PM 44.1 °F 40.8 °F 39.9 °F 85% 30.25 in 10.0 mi ESE 5.8 mph - N/A   Overcast
2:53 PM 44.1 °F 40.1 °F 39.9 °F 85% 30.26 in 10.0 mi ESE 6.9 mph - N/A   Overcast
3:53 PM 44.1 °F 42.5 °F 39.9 °F 85% 30.27 in 10.0 mi SE 3.5 mph - N/A   Overcast
4:53 PM 42.8 °F 40.1 °F 39.2 °F 87% 30.23 in 10.0 mi SSE 4.6 mph - N/A   Overcast
5:07 PM 44.1 °F 41.5 °F 39.9 °F 85% 30.23 in 10.0 mi SE 4.6 mph - N/A   Overcast
5:46 PM 44.1 °F 42.5 °F 39.9 °F 85% 30.22 in 10.0 mi East 3.5 mph - N/A   Overcast
5:53 PM 44.1 °F - 39.9 °F 85% 30.23 in 10.0 mi Calm Calm - N/A   Overcast
6:53 PM 43.0 °F - 39.9 °F 89% 30.22 in 10.0 mi Calm Calm - N/A   Overcast
7:53 PM 43.0 °F - 39.9 °F 89% 30.21 in 10.0 mi Calm Calm - N/A   Overcast
8:16 PM 43.0 °F 41.3 °F 39.9 °F 89% 30.19 in 10.0 mi ENE 3.5 mph - N/A   Overcast
8:29 PM 43.0 °F - 39.9 °F 89% 30.19 in 10.0 mi Calm Calm - N/A   Overcast
8:53 PM 43.0 °F 38.8 °F 39.9 °F 89% 30.19 in 10.0 mi SE 6.9 mph - N/A   Overcast
9:22 PM 42.1 °F 40.2 °F 39.9 °F 92% 30.18 in 10.0 mi SSE 3.5 mph - N/A   Overcast
9:49 PM 42.8 °F 41.1 °F 39.2 °F 87% 30.18 in 10.0 mi SE 3.5 mph - N/A   Overcast
9:53 PM 42.1 °F 39.2 °F 39.9 °F 92% 30.18 in 10.0 mi SE 4.6 mph - N/A   Overcast
10:53 PM 43.0 °F 40.3 °F 39.9 °F 89% 30.18 in 10.0 mi ESE 4.6 mph - N/A   Overcast
11:53 PM 44.1 °F 41.5 °F 39.9 °F 85% 30.16 in 10.0 mi ESE 4.6 mph - N/A   Overcast